timestamp,wind_dir_avg,wind_spd_avg,wind_spd_max_dir,wind_spd_gust,battery_voltage,lat,long
2023-12-08 00:04:00+00:00,301.0,8.57,296.0,11.69,12.33,47.59359,-54.27349
2023-12-08 00:14:00+00:00,299.0,8.94,284.0,13.47,12.33,47.59359,-54.27349
2023-12-08 00:24:00+00:00,303.0,7.68,306.0,9.85,12.33,47.59359,-54.27349
2023-12-08 00:34:00+00:00,294.0,10.59,289.0,14.79,12.33,47.59359,-54.27349
2023-12-08 00:44:00+00:00,294.0,7.07,288.0,9.76,12.33,47.59359,-54.27349
2023-12-08 00:54:00+00:00,296.0,6.05,290.0,7.58,12.33,47.59359,-54.27349
2023-12-08 01:04:00+00:00,292.0,7.13,295.0,8.98,12.33,47.59359,-54.27349
2023-12-08 01:14:00+00:00,283.0,10.14,278.0,13.54,12.25,47.59359,-54.27349
2023-12-08 01:24:00+00:00,279.0,6.29,289.0,8.44,12.25,47.59359,-54.27349
2023-12-08 01:34:00+00:00,271.0,6.91,265.0,8.31,12.25,47.59359,-54.27349
2023-12-08 01:44:00+00:00,283.0,8.84,272.0,11.99,12.25,47.59359,-54.27349
2023-12-08 01:54:00+00:00,279.0,9.91,280.0,13.75,12.25,47.59359,-54.27349
2023-12-08 02:04:00+00:00,291.0,8.88,285.0,14.18,12.25,47.59359,-54.27349
2023-12-08 02:14:00+00:00,284.0,9.63,269.0,13.73,12.25,47.59359,-54.27349
2023-12-08 02:24:00+00:00,283.0,10.01,278.0,13.81,12.25,47.59359,-54.27349
2023-12-08 02:34:00+00:00,279.0,10.05,277.0,13.69,12.25,47.59359,-54.27349
2023-12-08 02:44:00+00:00,294.0,10.42,293.0,14.67,12.25,47.59359,-54.27349
2023-12-08 02:54:00+00:00,279.0,9.44,273.0,13.21,12.25,47.59359,-54.27349
2023-12-08 03:04:00+00:00,282.0,9.03,272.0,12.59,12.25,47.59359,-54.27349
2023-12-08 03:14:00+00:00,298.0,12.9,304.0,16.48,12.25,47.59359,-54.27349
2023-12-08 03:24:00+00:00,280.0,7.92,274.0,11.1,12.25,47.59359,-54.27349
2023-12-08 03:34:00+00:00,285.0,9.03,289.0,14.21,12.25,47.59359,-54.27349
2023-12-08 03:44:00+00:00,272.0,10.58,270.0,12.3,12.25,47.59359,-54.27349
2023-12-08 03:54:00+00:00,276.0,11.45,277.0,13.76,12.25,47.59359,-54.27349
2023-12-08 04:04:00+00:00,270.0,10.98,266.0,13.75,12.25,47.59359,-54.27349
2023-12-08 04:14:00+00:00,255.0,10.1,252.0,12.64,12.17,47.59359,-54.27349
2023-12-08 04:24:00+00:00,267.0,11.68,270.0,13.72,12.17,47.59359,-54.27349
2023-12-08 04:34:00+00:00,262.0,11.17,260.0,13.97,12.17,47.59359,-54.27349
2023-12-08 04:44:00+00:00,259.0,11.07,260.0,13.95,12.17,47.59359,-54.27349
2023-12-08 04:54:00+00:00,273.0,11.25,285.0,14.36,12.17,47.59359,-54.27349
2023-12-08 05:04:00+00:00,271.0,12.9,266.0,15.9,12.17,47.59359,-54.27349
2023-12-08 05:14:00+00:00,272.0,12.17,269.0,14.36,12.17,47.59359,-54.27349
2023-12-08 05:24:00+00:00,264.0,11.72,263.0,13.72,12.17,47.59359,-54.27349
2023-12-08 05:34:00+00:00,279.0,12.66,280.0,14.82,12.17,47.59359,-54.27349
2023-12-08 05:44:00+00:00,276.0,11.25,270.0,13.86,12.17,47.59359,-54.27349
2023-12-08 05:54:00+00:00,276.0,11.57,277.0,13.76,12.17,47.59359,-54.27349
2023-12-08 06:04:00+00:00,281.0,12.5,280.0,14.57,12.17,47.59359,-54.27349
2023-12-08 06:14:00+00:00,274.0,12.79,273.0,20.2,12.17,47.59359,-54.27349
2023-12-08 06:24:00+00:00,280.0,12.83,283.0,14.39,12.17,47.59359,-54.27349
2023-12-08 06:34:00+00:00,268.0,11.94,262.0,13.68,12.17,47.59359,-54.27349
2023-12-08 06:44:00+00:00,276.0,13.42,278.0,15.43,12.17,47.59359,-54.27349
2023-12-08 06:54:00+00:00,270.0,11.92,266.0,13.66,12.17,47.59359,-54.27349
2023-12-08 07:04:00+00:00,270.0,11.87,272.0,14.18,12.17,47.59359,-54.27349
2023-12-08 07:14:01+00:00,272.0,12.68,263.0,16.1,12.17,47.59359,-54.27349
2023-12-08 07:24:01+00:00,267.0,11.76,268.0,13.41,12.17,47.59359,-54.27349
2023-12-08 07:34:01+00:00,264.0,11.69,262.0,14.29,12.17,47.59359,-54.27349
2023-12-08 07:44:01+00:00,274.0,12.39,282.0,14.92,12.17,47.59359,-54.27349
2023-12-08 07:54:01+00:00,267.0,11.94,265.0,14.31,12.17,47.59359,-54.27349
2023-12-08 08:04:01+00:00,275.0,14.02,277.0,16.91,12.17,47.59359,-54.27349
2023-12-08 08:14:01+00:00,263.0,12.7,263.0,15.29,12.09,47.59359,-54.27349
2023-12-08 08:24:01+00:00,264.0,12.99,260.0,14.93,12.09,47.59359,-54.27349
2023-12-08 08:34:01+00:00,271.0,12.2,274.0,13.81,12.09,47.59359,-54.27349
2023-12-08 08:44:01+00:00,270.0,12.31,262.0,14.47,12.09,47.59359,-54.27349
2023-12-08 08:54:01+00:00,276.0,13.22,266.0,15.78,12.09,47.59359,-54.27349
2023-12-08 09:04:01+00:00,269.0,11.98,279.0,13.83,12.09,47.59359,-54.27349
2023-12-08 09:14:01+00:00,278.0,13.37,277.0,17.28,12.09,47.59359,-54.27349
2023-12-08 09:24:01+00:00,279.0,12.92,284.0,15.64,12.09,47.59359,-54.27349
2023-12-08 09:34:01+00:00,272.0,14.06,266.0,17.6,12.09,47.59359,-54.27349
2023-12-08 09:44:01+00:00,280.0,15.38,285.0,19.65,12.09,47.59359,-54.27349
2023-12-08 09:54:01+00:00,278.0,11.99,286.0,14.96,12.09,47.59359,-54.27349
2023-12-08 10:04:01+00:00,274.0,14.57,284.0,18.8,12.09,47.59359,-54.27349
2023-12-08 10:14:00+00:00,280.0,15.11,290.0,17.83,12.09,47.59359,-54.27349
2023-12-08 10:24:00+00:00,278.0,14.43,280.0,16.58,12.09,47.59359,-54.27349
2023-12-08 10:34:00+00:00,273.0,14.43,273.0,17.92,12.09,47.59359,-54.27349
2023-12-08 10:44:00+00:00,284.0,13.16,282.0,16.98,12.09,47.59359,-54.27349
2023-12-08 10:54:00+00:00,283.0,14.3,284.0,17.3,12.09,47.59359,-54.27349
2023-12-08 11:04:00+00:00,278.0,12.3,284.0,14.33,12.09,47.59359,-54.27349
2023-12-08 11:14:00+00:00,276.0,13.61,276.0,15.4,12.09,47.59359,-54.27349
2023-12-08 11:24:00+00:00,279.0,12.65,275.0,14.37,12.09,47.59359,-54.27349
2023-12-08 11:34:00+00:00,274.0,11.33,273.0,14.16,12.09,47.59359,-54.27349
2023-12-08 11:44:00+00:00,278.0,13.53,278.0,15.79,12.09,47.59359,-54.27349
2023-12-08 11:54:00+00:00,273.0,12.07,276.0,14.95,12.09,47.59359,-54.27349
2023-12-08 12:04:00+00:00,274.0,12.51,276.0,15.05,12.09,47.59359,-54.27349
2023-12-08 12:14:00+00:00,275.0,11.94,265.0,16.23,12.17,47.59359,-54.27349
2023-12-08 12:24:00+00:00,275.0,12.16,275.0,16.16,12.17,47.59359,-54.27349
2023-12-08 12:34:00+00:00,277.0,14.97,278.0,17.65,12.17,47.59359,-54.27349
2023-12-08 12:44:00+00:00,281.0,14.13,282.0,16.9,12.17,47.59359,-54.27349
2023-12-08 12:54:00+00:00,280.0,12.7,272.0,16.68,12.17,47.59359,-54.27349
2023-12-08 13:04:00+00:00,277.0,15.24,292.0,18.52,12.17,47.59359,-54.27349
2023-12-08 13:14:00+00:00,276.0,14.22,283.0,17.16,12.49,47.59359,-54.27349
2023-12-08 13:24:00+00:00,279.0,13.77,273.0,19.36,12.49,47.59359,-54.27349
2023-12-08 13:34:00+00:00,281.0,13.26,278.0,16.87,12.49,47.59359,-54.27349
2023-12-08 13:44:00+00:00,275.0,13.06,269.0,15.64,12.49,47.59359,-54.27349
2023-12-08 13:54:00+00:00,276.0,10.94,276.0,12.53,12.49,47.59359,-54.27349
2023-12-08 14:04:00+00:00,271.0,11.04,266.0,12.64,12.49,47.59359,-54.27349
2023-12-08 14:14:00+00:00,280.0,12.09,285.0,15.47,13.21,47.59359,-54.27349
2023-12-08 14:24:00+00:00,282.0,13.51,296.0,16.42,13.21,47.59359,-54.27349
2023-12-08 14:34:00+00:00,277.0,14.62,279.0,16.68,13.21,47.59359,-54.27349
2023-12-08 14:44:00+00:00,273.0,13.01,276.0,15.51,13.21,47.59359,-54.27349
2023-12-08 14:54:00+00:00,280.0,11.51,288.0,14.21,13.21,47.59359,-54.27349
2023-12-08 15:04:00+00:00,278.0,12.38,280.0,14.93,13.21,47.59359,-54.27349
2023-12-08 15:14:00+00:00,275.0,13.92,274.0,16.07,13.84,47.59359,-54.27349
2023-12-08 15:24:00+00:00,276.0,11.64,274.0,15.62,13.84,47.59359,-54.27349
2023-12-08 15:34:00+00:00,274.0,11.91,277.0,12.95,13.84,47.59359,-54.27349
2023-12-08 15:44:00+00:00,274.0,11.96,272.0,14.55,13.84,47.59359,-54.27349
2023-12-08 15:54:00+00:00,282.0,11.4,286.0,13.06,13.84,47.59359,-54.27349
2023-12-08 16:04:00+00:00,272.0,11.9,271.0,13.08,13.84,47.59359,-54.27349
2023-12-08 16:14:00+00:00,287.0,9.77,289.0,12.76,13.76,47.59359,-54.27349
2023-12-08 16:24:00+00:00,276.0,12.8,282.0,18.43,13.76,47.59359,-54.27349
2023-12-08 16:34:00+00:00,280.0,9.69,274.0,11.2,13.76,47.59359,-54.27349
2023-12-08 16:44:00+00:00,289.0,11.02,304.0,13.82,13.76,47.59359,-54.27349
2023-12-08 16:54:00+00:00,288.0,10.88,289.0,12.56,13.76,47.59359,-54.27349
2023-12-08 17:04:00+00:00,280.0,11.54,285.0,15.87,13.76,47.59359,-54.27349
2023-12-08 17:14:00+00:00,287.0,9.57,298.0,11.29,13.6,47.59359,-54.27349
2023-12-08 17:24:00+00:00,273.0,10.19,270.0,11.19,13.6,47.59359,-54.27349
2023-12-08 17:34:00+00:00,289.0,9.47,293.0,11.3,13.6,47.59359,-54.27349
2023-12-08 17:44:00+00:00,285.0,9.1,280.0,10.61,13.6,47.59359,-54.27349
2023-12-08 17:54:00+00:00,291.0,10.73,293.0,12.42,13.6,47.59359,-54.27349
2023-12-08 18:04:00+00:00,289.0,9.24,285.0,10.47,13.6,47.59359,-54.27349
2023-12-08 18:14:00+00:00,279.0,11.69,273.0,18.02,13.68,47.59359,-54.27349
2023-12-08 18:24:00+00:00,289.0,9.68,284.0,11.31,13.68,47.59359,-54.27349
2023-12-08 18:34:00+00:00,281.0,10.34,274.0,11.98,13.68,47.59359,-54.27349
2023-12-08 18:44:00+00:00,289.0,10.09,289.0,11.13,13.68,47.59359,-54.27349
2023-12-08 18:54:00+00:00,289.0,11.12,286.0,14.2,13.68,47.59359,-54.27349
2023-12-08 19:04:00+00:00,293.0,9.11,303.0,11.08,13.68,47.59359,-54.27349
2023-12-08 19:14:00+00:00,292.0,10.08,297.0,11.17,13.21,47.59359,-54.27349
2023-12-08 19:24:00+00:00,293.0,9.51,285.0,10.98,13.21,47.59359,-54.27349
2023-12-08 19:34:00+00:00,288.0,9.2,286.0,10.74,13.21,47.59359,-54.27349
2023-12-08 19:44:00+00:00,283.0,9.3,286.0,12.56,13.21,47.59359,-54.27349
2023-12-08 19:54:00+00:00,291.0,8.85,295.0,11.14,13.21,47.59359,-54.27349
2023-12-08 20:04:00+00:00,283.0,9.41,287.0,10.92,13.21,47.59359,-54.27349
2023-12-08 20:14:00+00:00,278.0,10.28,268.0,12.38,12.65,47.59359,-54.27349
2023-12-08 20:24:00+00:00,285.0,9.7,288.0,11.91,12.65,47.59359,-54.27349
2023-12-08 20:34:00+00:00,278.0,9.52,286.0,10.98,12.65,47.59359,-54.27349
2023-12-08 20:44:00+00:00,287.0,8.35,288.0,10.6,12.65,47.59359,-54.27349
2023-12-08 20:54:00+00:00,279.0,8.41,278.0,11.21,12.65,47.59359,-54.27349
2023-12-08 21:04:00+00:00,292.0,9.86,294.0,11.55,12.65,47.59359,-54.27349
2023-12-08 21:14:00+00:00,293.0,9.23,295.0,11.5,12.49,47.59359,-54.27349
2023-12-08 21:24:00+00:00,299.0,9.31,298.0,10.92,12.49,47.59359,-54.27349
2023-12-08 21:34:00+00:00,303.0,10.73,311.0,12.54,12.49,47.59359,-54.27349
2023-12-08 21:44:00+00:00,302.0,11.67,295.0,14.43,12.49,47.59359,-54.27349
2023-12-08 21:54:00+00:00,299.0,11.55,301.0,13.07,12.49,47.59359,-54.27349
2023-12-08 22:04:00+00:00,309.0,10.54,313.0,12.46,12.49,47.59359,-54.27349
2023-12-08 22:14:00+00:00,307.0,10.46,313.0,12.69,12.41,47.59359,-54.27349
2023-12-08 22:24:00+00:00,303.0,10.87,302.0,12.73,12.41,47.59359,-54.27349
2023-12-08 22:34:00+00:00,302.0,11.2,313.0,12.88,12.41,47.59359,-54.27349
2023-12-08 22:44:00+00:00,297.0,9.82,300.0,11.63,12.41,47.59359,-54.27349
2023-12-08 22:54:00+00:00,302.0,9.99,296.0,11.6,12.41,47.59359,-54.27349
2023-12-08 23:04:00+00:00,306.0,10.93,302.0,13.57,12.41,47.59359,-54.27349
2023-12-08 23:14:00+00:00,304.0,10.37,307.0,11.54,12.41,47.59359,-54.27349
2023-12-08 23:24:00+00:00,301.0,10.15,300.0,11.33,12.41,47.59359,-54.27349
2023-12-08 23:34:00+00:00,298.0,9.75,306.0,11.6,12.41,47.59359,-54.27349
2023-12-08 23:44:00+00:00,297.0,10.65,293.0,13.26,12.41,47.59359,-54.27349
2023-12-08 23:54:00+00:00,301.0,11.51,292.0,17.1,12.41,47.59359,-54.27349
